Terminal Aerodrome Forecast
Issued by NWS

Home | Current Version | Previous Version | Text Only | Print | Product List | Glossary On
Versions: 1 2 3 4 5 6 7 8 9 10 11 12 13 14 15 16 17 18 19 20 21 22 23 24 25 26 27 28 29 30 31 32 33 34 35 36 37
000
FTUS41 KBOX 301311 AAA
TAFACK
TAF AMD
KACK 301311Z 3013/3112 22010KT P6SM SCT003
     FM301600 22014G22KT P6SM FEW015 SCT250
     FM310500 21013KT 6SM BR BKN020
     FM311100 25009KT 6SM BR BKN020=

USA.gov is the U.S. government's official web portal to all federal, state and local government web resources and services.